| time (UTC) | temp F | wind direction | speed knots | gust knots | rain 1hr in | rain 24hr in | rain mn in | humidity % | barometer mb |
| 20260505210030 | 74 | 329 | 0.9 | 6.1 | 0.00 | 0.00 | 0.00 | 50 | 1014.5 |
| 20260505204531 | 75 | 310 | 1.7 | 7.8 | 0.00 | 0.00 | 0.00 | 50 | 1014.5 |
| 20260505201528 | 76 | 319 | 0.9 | 6.1 | 0.00 | 0.00 | 0.00 | 51 | 1014.7 |
| 20260505200031 | 75 | 314 | 1.7 | 7.8 | 0.00 | 0.00 | 0.00 | 50 | 1014.8 |
| 20260505194529 | 76 | 345 | 1.7 | 6.1 | 0.00 | 0.00 | 0.00 | 50 | 1014.8 |
| 20260505193031 | 0 | 0 | 0.0 | 0.0 | 0.00 | 0.00 | 0.00 | 100 | |
| 20260505191536 | 74 | 320 | 0.9 | 5.2 | 0.00 | 0.00 | 0.00 | 54 | 1015.0 |
| 20260505190105 | 71 | 313 | 1.7 | 7.8 | 0.00 | 0.00 | 0.00 | 57 | 1015.1 |
| 20260505184613 | 70 | 334 | 0.9 | 7.0 | 0.00 | 0.00 | 0.00 | 58 | 1015.1 |
| 20260505183030 | 70 | 316 | 1.7 | 7.0 | 0.00 | 0.00 | 0.00 | 57 | 1015.2 |
| 20260505181529 | 71 | 333 | 0.0 | 6.1 | 0.00 | 0.00 | 0.00 | 57 | 1015.2 |
| 20260505180032 | 70 | 336 | 0.9 | 6.1 | 0.00 | 0.00 | 0.00 | 59 | 1015.1 |
| 20260505174529 | 69 | 342 | 0.9 | 5.2 | 0.00 | 0.00 | 0.00 | 61 | 1015.2 |
| 20260505173031 | 67 | 348 | 0.9 | 4.3 | 0.00 | 0.00 | 0.00 | 66 | 1015.1 |
| 20260505171529 | 65 | 3 | 0.0 | 5.2 | 0.00 | 0.00 | 0.00 | 68 | 1015.1 |
| 20260505170034 | 65 | 7 | 0.0 | 5.2 | 0.00 | 0.00 | 0.00 | 69 | 1015.1 |
| 20260505164530 | 64 | 40 | 0.9 | 3.5 | 0.00 | 0.00 | 0.00 | 72 | 1015.1 |
| 20260505163031 | 64 | 35 | 0.9 | 3.5 | 0.00 | 0.00 | 0.00 | 74 | 1015.1 |
| 20260505161538 | 63 | 28 | 0.0 | 2.6 | 0.00 | 0.00 | 0.00 | 80 | 1015.2 |
| 20260505153105 | 56 | 7 | 0.0 | 3.5 | 0.00 | 0.00 | 0.00 | 91 | 1014.8 |
| 20260505151531 | 55 | 48 | 0.0 | 1.7 | 0.00 | 0.00 | 0.00 | 92 | 1014.7 |
| 20260505123033 | 48 | 225 | 0.0 | 0.0 | 0.00 | 0.00 | 0.00 | 91 | 1013.1 |
| 20260505121529 | 48 | 277 | 0.0 | 0.9 | 0.00 | 0.00 | 0.00 | 91 | 1013.0 |
| 20260505114646 | 49 | 292 | 0.0 | 0.0 | 0.00 | 0.00 | 0.00 | 91 | 1012.9 |
| 20260505113029 | 49 | 288 | 0.0 | 0.0 | 0.00 | 0.00 | 0.00 | 90 | 1012.8 |
| 20260505111531 | 49 | 225 | 0.0 | 0.0 | 0.00 | 0.00 | 0.00 | 90 | 1012.7 |
| 20260505101608 | 51 | 225 | 0.0 | 0.0 | 0.00 | 0.00 | 0.00 | 89 | 1012.4 |
| 20260505100038 | 51 | 225 | 0.0 | 0.0 | 0.00 | 0.00 | 0.00 | 88 | 1012.3 |
| 20260505093032 | 52 | 186 | 0.0 | 0.9 | 0.00 | 0.00 | 0.00 | 87 | 1012.2 |
| 20260505091534 | 52 | 94 | 0.0 | 1.7 | 0.00 | 0.00 | 0.00 | 86 | 1012.1 |
| 20260505090030 | 53 | 157 | 0.0 | 0.0 | 0.00 | 0.00 | 0.00 | 84 | 1012.0 |
| 20260505084532 | 54 | 157 | 0.0 | 0.0 | 0.00 | 0.00 | 0.00 | 82 | 1012.1 |
| 20260505083030 | 54 | 158 | 0.0 | 2.6 | 0.00 | 0.00 | 0.00 | 82 | 1012.1 |
| 20260505081529 | 55 | 337 | 0.0 | 3.5 | 0.00 | 0.00 | 0.00 | 82 | 1012.1 |
| 20260505080032 | 54 | 73 | 0.0 | 0.0 | 0.00 | 0.00 | 0.00 | 82 | 1012.0 |
| 20260505074531 | 54 | 243 | 0.0 | 0.0 | 0.00 | 0.00 | 0.00 | 80 | 1011.9 |
| 20260505073106 | 55 | 214 | 0.0 | 0.0 | 0.00 | 0.00 | 0.00 | 79 | 1011.9 |
| 20260505070112 | 56 | 277 | 0.0 | 2.6 | 0.00 | 0.00 | 0.00 | 76 | 1011.6 |
| 20260505063037 | 57 | 182 | 2.6 | 4.3 | 0.00 | 0.00 | 0.00 | 72 | 1011.6 |
| 20260505061533 | 58 | 189 | 1.7 | 3.5 | 0.00 | 0.00 | 0.00 | 70 | 1011.6 |
| 20260505060035 | 59 | 176 | 0.9 | 2.6 | 0.00 | 0.00 | 0.00 | 68 | 1011.6 |
| 20260505054536 | 59 | 163 | 0.9 | 3.5 | 0.00 | 0.00 | 0.00 | 66 | 1011.5 |
| 20260505053031 | 60 | 221 | 0.9 | 3.5 | 0.00 | 0.00 | 0.00 | 63 | 1011.3 |
| 20260505041531 | 65 | 232 | 0.9 | 5.2 | 0.00 | 0.00 | 0.00 | 54 | 1010.8 |
| 20260505040048 | 65 | 258 | 1.7 | 6.1 | 0.00 | 0.00 | 0.00 | 53 | 1010.6 |
| 20260505034536 | 65 | 265 | 1.7 | 5.2 | 0.00 | 0.00 | 0.00 | 53 | 1010.4 |
| 20260505031534 | 68 | 264 | 1.7 | 6.1 | 0.00 | 0.00 | 0.00 | 47 | 1010.1 |
| 20260505024534 | 72 | 264 | 4.3 | 11.3 | 0.00 | 0.00 | 0.00 | 42 | 1009.7 |
| 20260505023037 | 73 | 279 | 6.1 | 12.2 | 0.00 | 0.00 | 0.00 | 41 | 1009.6 |
| 20260505021531 | 75 | 287 | 6.1 | 13.0 | 0.00 | 0.00 | 0.00 | 39 | 1009.5 |
| 20260505020029 | 76 | 284 | 7.0 | 17.4 | 0.00 | 0.00 | 0.00 | 37 | 1009.4 |
| 20260505014532 | 77 | 281 | 7.0 | 14.8 | 0.00 | 0.00 | 0.00 | 36 | 1009.5 |
| 20260505013030 | 78 | 282 | 7.8 | 18.2 | 0.00 | 0.00 | 0.00 | 35 | 1009.4 |
| 20260505010033 | 79 | 287 | 7.8 | 16.5 | 0.00 | 0.00 | 0.00 | 37 | 1009.3 |
| 20260505004529 | 79 | 307 | 2.6 | 13.9 | 0.00 | 0.00 | 0.00 | 42 | 1009.5 |
| 20260505003031 | 80 | 318 | 2.6 | 9.6 | 0.00 | 0.00 | 0.00 | 41 | 1009.4 |
| 20260505001531 | 80 | 330 | 1.7 | 7.0 | 0.00 | 0.00 | 0.00 | 40 | 1009.5 |
| 20260505000031 | 81 | 330 | 1.7 | 7.0 | 0.00 | 0.00 | 0.00 | 41 | 1009.5 |
| 20260504234531 | 81 | 343 | 1.7 | 9.6 | 0.00 | 0.00 | 0.00 | 40 | 1009.5 |
| 20260504233031 | 82 | 347 | 1.7 | 7.0 | 0.00 | 0.00 | 0.00 | 40 | 1009.6 |
| 20260504231530 | 82 | 340 | 1.7 | 7.8 | 0.00 | 0.00 | 0.00 | 40 | 1009.7 |
| 20260504223030 | 81 | 325 | 2.6 | 10.4 | 0.00 | 0.00 | 0.00 | 38 | 1010.2 |
| 20260504221531 | 81 | 327 | 1.7 | 7.8 | 0.00 | 0.00 | 0.00 | 37 | 1010.3 |
| 20260504220029 | 80 | 320 | 1.7 | 9.6 | 0.00 | 0.00 | 0.00 | 37 | 1010.4 |
| 20260504213030 | 80 | 282 | 4.3 | 10.4 | 0.00 | 0.00 | 0.00 | 34 | 1010.7 |
| 20260504211539 | 80 | 312 | 2.6 | 7.8 | 0.00 | 0.00 | 0.00 | 34 | 1010.8 |